Syracuse, NY

8:39 PM EDT on August 17, 2017 (GMT -0400)
Syracuse Hancock International

Weather History for KSYR - October, 2010

Change the Weather History Date:

Tuesday, October 19, 2010

  Actual Average Record
Temperature  
Mean Temperature 46 °F 50 °F  
Max Temperature 57 °F 59 °F 81 °F (1953)
Min Temperature 35 °F 40 °F 22 °F (1922)
Degree Days  
Heating Degree Days 19 16  
Month to date heating degree days 251 241  
Since 1 July heating degree days 383 408  
Cooling Degree Days 0 0  
Month to date cooling degree days 0 0  
Year to date cooling degree days 796 565  
Moisture  
Dew Point 36 °F    
Average Humidity 66    
Maximum Humidity 89    
Minimum Humidity 43    
Precipitation  
Precipitation T in 0.11 in 1.67 in (1968)
Month to date precipitation 2.39 2.12  
Year to date precipitation 34.40 30.40  
Snow  
Snow 0.00 in 0.00 in 1.20 in (1992)
Month to date snowfall 0.0 0.1  
Since 1 July snowfall 0.0 0.1  
Since 1 September snowfall 0.0 0.1  
Snow Depth 0.00 in    
Sea Level Pressure  
Sea Level Pressure 29.88 in    
Wind  
Wind Speed 5 mph (WSW)    
Max Wind Speed 17 mph    
Max Gust Speed 23 mph    
Visibility 10 miles    
Events Rain    
T = Trace of Precipitation, MM = Missing Value Source: NWS Daily Summary

Daily Weather History Graph

Daily Weather History Graph

Search for Another Location

Airport or City:

Trip Planner

Search our weather history database for the weather conditions in past years. The results will help you decide how hot, cold, wet, or windy it might be!

Date:

Astronomy

Oct. 19, 2010 Rise Set
Actual Time 7:22 AM EDT 6:15 PM EDT
Civil Twilight 6:54 AM EDT 6:44 PM EDT
Nautical Twilight 6:20 AM EDT 7:17 PM EDT
Astronomical Twilight 5:48 AM EDT 7:49 PM EDT
Moon 4:27 PM EDT (10/19) 4:01 AM EDT (10/19)
Length of Visible Light 11h 50m
Length of Day
10h 52m
Waxing Gibbous, 89% of the Moon is Illuminated
Oct 19
Waxing Gibbous
Oct 22
Full
Oct 30
Last Quarter
Nov 6
New
Nov 13
First Quarter

Hourly Weather History & Observations

Time (EDT) Temp. Windchill Dew Point Humidity Pressure Visibility Wind Dir Wind Speed Gust Speed Precip Events Conditions
12:54 AM 37.0 °F - 33.1 °F 86% 29.92 in 10.0 mi Calm Calm - N/A   Scattered Clouds
1:54 AM 37.0 °F - 33.1 °F 86% 29.91 in 10.0 mi Calm Calm - N/A   Scattered Clouds
2:54 AM 36.0 °F 33.3 °F 32.0 °F 86% 29.90 in 10.0 mi SSE 3.5 mph - N/A   Partly Cloudy
3:54 AM 37.0 °F - 32.0 °F 82% 29.89 in 10.0 mi Calm Calm - N/A   Overcast
4:54 AM 39.0 °F - 34.0 °F 82% 29.88 in 10.0 mi Calm Calm - N/A   Overcast
5:54 AM 39.9 °F 36.7 °F 36.0 °F 86% 29.89 in 10.0 mi South 4.6 mph - 0.00 in Rain Light Rain
6:54 AM 42.1 °F 38.4 °F 37.0 °F 82% 29.89 in 10.0 mi SSW 5.8 mph - 0.00 in   Overcast
7:54 AM 43.0 °F - 37.0 °F 80% 29.89 in 10.0 mi Calm Calm - N/A   Overcast
8:54 AM 44.1 °F - 39.0 °F 82% 29.90 in 10.0 mi Calm Calm - N/A   Mostly Cloudy
9:54 AM 46.9 °F - 37.9 °F 71% 29.90 in 10.0 mi Calm Calm - N/A   Mostly Cloudy
10:54 AM 50.0 °F - 39.9 °F 68% 29.89 in 10.0 mi West 11.5 mph - N/A   Mostly Cloudy
11:54 AM 54.0 °F - 39.9 °F 59% 29.88 in 10.0 mi WNW 11.5 mph 17.3 mph N/A   Scattered Clouds
12:54 PM 55.0 °F - 36.0 °F 49% 29.87 in 10.0 mi West 10.4 mph - N/A   Scattered Clouds
1:54 PM 54.0 °F - 34.0 °F 47% 29.86 in 10.0 mi WNW 10.4 mph - N/A   Mostly Cloudy
3:54 PM 57.0 °F - 36.0 °F 45% 29.84 in 10.0 mi West 4.6 mph - N/A   Mostly Cloudy
4:54 PM 54.0 °F - 36.0 °F 51% 29.84 in 10.0 mi West 4.6 mph - N/A   Mostly Cloudy
5:54 PM 52.0 °F - 35.1 °F 53% 29.85 in 10.0 mi WSW 6.9 mph - N/A   Mostly Cloudy
6:54 PM 52.0 °F - 37.0 °F 57% 29.86 in 10.0 mi WSW 4.6 mph - 0.00 in   Overcast
7:54 PM 50.0 °F - 39.0 °F 66% 29.87 in 10.0 mi Calm Calm - 0.00 in   Overcast
8:54 PM 46.9 °F - 37.9 °F 71% 29.87 in 10.0 mi SW 5.8 mph - N/A   Mostly Cloudy
9:54 PM 48.0 °F - 37.9 °F 68% 29.88 in 10.0 mi WSW 6.9 mph - N/A   Mostly Cloudy
10:54 PM 46.0 °F 41.9 °F 37.0 °F 71% 29.89 in 10.0 mi SW 8.1 mph - N/A   Partly Cloudy
11:54 PM 46.0 °F 41.9 °F 37.0 °F 71% 29.89 in 10.0 mi WSW 8.1 mph - N/A   Scattered Clouds